Location: Pcim
(49.7500°N, 19.9670°E)
Time: 02:18:14
(UTC+02:00)

AO-91 - Pass Details

Date: 01 May 2024
Orbit: 432 x 672 km, 97.5° (Epoch: 12 June)

Event Time Altitude Azimuth Distance (km) Brightness Sun altitude
Rises 21:56:07 0° 20° (NNE) 2,436 ? -15.8°
Reaches altitude 10° 21:58:13 10° 30° (NNE) 1,577 ? -16.0°
Maximum altitude 22:01:20 36° 98° (E) 754 ? -16.3°
Enters shadow 22:01:37 35° 110° (ESE) 766 ? -16.4°
